Location: Newark
(54.2500°N, 9.1833°E)
Time: 06:29:57
(UTC+00:00)

Transit 4A - Pass Details

Date: 21 December 2019
Orbit: 872 x 973 km, 66.8° (Epoch: 27 January)

Event Time Altitude Azimuth Distance (km) Brightness Sun altitude
Rises 18:24:48 0° 294° (WNW) 3,540 11.9 -28.0°
Reaches altitude 10° 18:27:51 10° 308° (NW) 2,582 10.8 -28.4°
Enters shadow 18:32:32 24° 0° (N) 1,749 9.3 -29.1°
